When you browse on this site, cookies collect data to enhance your experience and personalize the content and advertising you see.
Visit our Privacy Policy to learn more. By continuing to use the site, you agree to this use of cookies and data.
  • In Sweden
  • List of Countries
  • For 7 days
  • Water Temperature
  • Weather Map
  • Weather Widgets
  • user-avatar
    Login

    Hourly Weather Champs-sur-Marne

    Today, 23 August, Friday

    Time Temperature Precipitation Wind Pressure Humidity
    00:00 +17°C° 0 mm 2 mps 762 mmHg 61%
    01:00 +17°C° 0 mm 2 mps 762 mmHg 62%
    02:00 +16°C° 0 mm 2 mps 762 mmHg 64%
    03:00 +16°C° 0 mm 2 mps 762 mmHg 65%
    04:00 +16°C° 0 mm 2 mps 762 mmHg 65%
    05:00 +16°C° 0 mm 2 mps 761 mmHg 65%
    06:00 +16°C° 0 mm 2 mps 762 mmHg 65%
    07:00 +18°C° 0 mm 2 mps 762 mmHg 59%
    08:00 +21°C° 0 mm 2 mps 762 mmHg 53%
    09:00 +24°C° 0 mm 2 mps 762 mmHg 47%
    10:00 +25°C° 0 mm 2 mps 761 mmHg 43%
    11:00 +27°C° 0 mm 2 mps 761 mmHg 39%
    12:00 +29°C° 0 mm 2 mps 760 mmHg 35%
    13:00 +29°C° 0 mm 2 mps 760 mmHg 34%
    14:00 +30°C° 0 mm 2 mps 760 mmHg 32%
    15:00 +30°C° 0 mm 3 mps 759 mmHg 31%
    16:00 +29°C° 0 mm 3 mps 759 mmHg 36%
    17:00 +28°C° 0 mm 3 mps 759 mmHg 41%
    18:00 +26°C° 0 mm 2 mps 758 mmHg 45%
    19:00 +25°C° 0 mm 2 mps 758 mmHg 49%
    20:00 +24°C° 0 mm 2 mps 759 mmHg 53%
    21:00 +21°C° 0 mm 2 mps 759 mmHg 57%
    22:00 +21°C° 0 mm 2 mps 758 mmHg 60%
    23:00 +20°C° 0 mm 2 mps 758 mmHg 63%

    Tomorrow, 24 August, Saturday

    Time Temperature Precipitation Wind Pressure Humidity
    00:00 +19°C° 0 mm 2 mps 758 mmHg 65%
    01:00 +19°C° 0 mm 2 mps 758 mmHg 67%
    02:00 +19°C° 0 mm 2 mps 758 mmHg 69%
    03:00 +18°C° 0 mm 2 mps 757 mmHg 71%
    04:00 +18°C° 0 mm 2 mps 757 mmHg 73%
    05:00 +18°C° 0 mm 2 mps 757 mmHg 74%
    06:00 +18°C° 0 mm 2 mps 757 mmHg 75%
    07:00 +20°C° 0 mm 2 mps 757 mmHg 69%
    08:00 +23°C° 0 mm 2 mps 757 mmHg 62%
    09:00 +25°C° 0 mm 2 mps 757 mmHg 56%
    10:00 +27°C° 0 mm 2 mps 757 mmHg 49%
    11:00 +28°C° 0 mm 2 mps 757 mmHg 43%
    12:00 +30°C° 0 mm 2 mps 756 mmHg 37%
    13:00 +31°C° 0 mm 2 mps 756 mmHg 34%
    14:00 +31°C° 0 mm 1 mps 756 mmHg 32%
    15:00 +32°C° 0 mm 1 mps 756 mmHg 29%
    16:00 +31°C° 0 mm 1 mps 755 mmHg 33%
    17:00 +29°C° 0 mm 1 mps 755 mmHg 36%
    18:00 +28°C° 0 mm 2 mps 755 mmHg 40%
    19:00 +27°C° 0 mm 2 mps 755 mmHg 43%
    20:00 +26°C° 0 mm 2 mps 755 mmHg 46%
    21:00 +25°C° 0 mm 2 mps 756 mmHg 49%
    22:00 +24°C° 0 mm 1 mps 756 mmHg 52%
    23:00 +23°C° 0 mm 1 mps 755 mmHg 54%

    Day after tomorrow, 25 August, Sunday

    Time Temperature Precipitation Wind Pressure Humidity
    00:00 +23°C° 0 mm 1 mps 755 mmHg 56%
    01:00 +22°C° 0 mm 1 mps 755 mmHg 58%
    02:00 +21°C° 0 mm 1 mps 755 mmHg 60%
    03:00 +19°C° 0 mm 0 mps 755 mmHg 62%
    04:00 +19°C° 0 mm 0 mps 755 mmHg 61%
    05:00 +19°C° 0 mm 0 mps 755 mmHg 61%
    06:00 +19°C° 0 mm 0 mps 755 mmHg 61%
    07:00 +24°C° 0 mm 1 mps 756 mmHg 55%
    08:00 +26°C° 0 mm 1 mps 756 mmHg 48%
    09:00 +28°C° 0 mm 1 mps 756 mmHg 42%
    10:00 +30°C° 0 mm 1 mps 756 mmHg 37%
    11:00 +30°C° 0 mm 0 mps 756 mmHg 32%
    12:00 +31°C° 0 mm 0 mps 756 mmHg 27%
    13:00 +32°C° 0 mm 0 mps 756 mmHg 25%
    14:00 +34°C° 0 mm 1 mps 755 mmHg 23%
    15:00 +34°C° 0 mm 1 mps 755 mmHg 21%
    16:00 +33°C° 0 mm 1 mps 755 mmHg 24%
    17:00 +32°C° 0 mm 1 mps 755 mmHg 28%
    18:00 +30°C° 0 mm 2 mps 755 mmHg 31%
    19:00 +29°C° 0 mm 2 mps 755 mmHg 34%
    20:00 +27°C° 0 mm 2 mps 756 mmHg 37%
    21:00 +26°C° 0 mm 2 mps 756 mmHg 40%
    22:00 +25°C° 0 mm 2 mps 756 mmHg 42%
    23:00 +25°C° 0 mm 2 mps 756 mmHg 44%

    26 August, Monday

    Time Temperature Precipitation Wind Pressure Humidity
    00:00 +24°C° 0 mm 2 mps 756 mmHg 46%
    01:00 +23°C° 0 mm 2 mps 755 mmHg 48%
    02:00 +23°C° 0 mm 1 mps 755 mmHg 50%
    03:00 +22°C° 0 mm 1 mps 755 mmHg 52%
    04:00 +22°C° 0 mm 1 mps 755 mmHg 54%
    05:00 +22°C° 0 mm 1 mps 755 mmHg 57%
    06:00 +22°C° 0 mm 1 mps 755 mmHg 59%
    07:00 +24°C° 0 mm 2 mps 755 mmHg 53%
    08:00 +27°C° 0 mm 2 mps 755 mmHg 48%
    09:00 +29°C° 0 mm 2 mps 755 mmHg 43%
    10:00 +30°C° 0 mm 2 mps 755 mmHg 39%
    11:00 +32°C° 0 mm 2 mps 755 mmHg 34%
    12:00 +34°C° 0 mm 2 mps 755 mmHg 30%
    13:00 +34°C° 0 mm 3 mps 754 mmHg 29%
    14:00 +35°C° 0 mm 3 mps 754 mmHg 28%
    15:00 +35°C° 0 mm 3 mps 754 mmHg 26%
    16:00 +33°C° 0 mm 3 mps 753 mmHg 31%
    17:00 +31°C° 0 mm 3 mps 753 mmHg 35%
    18:00 +30°C° 0 mm 3 mps 753 mmHg 39%
    19:00 +29°C° 0 mm 3 mps 753 mmHg 42%
    20:00 +27°C° 0 mm 3 mps 753 mmHg 45%
    21:00 +26°C° 0 mm 3 mps 753 mmHg 48%
    22:00 +26°C° 0 mm 3 mps 753 mmHg 50%
    23:00 +25°C° 0 mm 3 mps 753 mmHg 51%

    27 August, Tuesday

    Time Temperature Precipitation Wind Pressure Humidity
    00:00 +24°C° 0 mm 2 mps 753 mmHg 53%
    01:00 +24°C° 0 mm 2 mps 752 mmHg 54%
    02:00 +24°C° 0 mm 2 mps 752 mmHg 55%
    03:00 +23°C° 0 mm 2 mps 752 mmHg 56%
    04:00 +23°C° 0 mm 2 mps 752 mmHg 54%
    05:00 +23°C° 0 mm 2 mps 752 mmHg 53%
    06:00 +23°C° 0 mm 2 mps 752 mmHg 52%
    07:00 +25°C° 0 mm 2 mps 752 mmHg 48%
    08:00 +26°C° 0 mm 2 mps 753 mmHg 45%
    09:00 +28°C° 0 mm 2 mps 753 mmHg 42%
    10:00 +29°C° 0 mm 2 mps 753 mmHg 40%
    11:00 +30°C° 0 mm 2 mps 753 mmHg 38%
    12:00 +31°C° 0 mm 3 mps 753 mmHg 36%
    13:00 +30°C° 0 mm 3 mps 753 mmHg 38%
    14:00 +30°C° 0 mm 3 mps 753 mmHg 40%
    15:00 +30°C° 0 mm 3 mps 753 mmHg 43%
    16:00 +27°C° 0.5 mm 3 mps 753 mmHg 54%
    17:00 +25°C° 0.5 mm 4 mps 754 mmHg 65%
    18:00 +22°C° 0.5 mm 4 mps 754 mmHg 77%
    19:00 +21°C° 0.4 mm 3 mps 754 mmHg 76%
    20:00 +20°C° 0.4 mm 3 mps 755 mmHg 76%
    21:00 +20°C° 0.4 mm 2 mps 755 mmHg 76%
    22:00 +19°C° 0.1 mm 2 mps 755 mmHg 78%
    23:00 +19°C° 0.1 mm 3 mps 755 mmHg 80%

    28 August, Wednesday

    Time Temperature Precipitation Wind Pressure Humidity
    00:00 +18°C° 0.1 mm 3 mps 756 mmHg 81%
    01:00 +18°C° 0 mm 3 mps 756 mmHg 83%
    02:00 +18°C° 0 mm 2 mps 756 mmHg 85%
    03:00 +18°C° 0 mm 2 mps 756 mmHg 86%
    04:00 +17°C° 0 mm 2 mps 756 mmHg 86%
    05:00 +17°C° 0 mm 2 mps 756 mmHg 85%
    06:00 +17°C° 0 mm 2 mps 757 mmHg 85%
    07:00 +19°C° 0 mm 2 mps 757 mmHg 77%
    08:00 +20°C° 0 mm 2 mps 757 mmHg 70%
    09:00 +23°C° 0 mm 2 mps 758 mmHg 62%
    10:00 +24°C° 0 mm 3 mps 758 mmHg 54%
    11:00 +25°C° 0 mm 3 mps 758 mmHg 46%
    12:00 +27°C° 0 mm 3 mps 758 mmHg 37%
    13:00 +27°C° 0 mm 3 mps 757 mmHg 35%
    14:00 +28°C° 0 mm 3 mps 757 mmHg 33%
    15:00 +28°C° 0 mm 3 mps 757 mmHg 31%
    16:00 +27°C° 0 mm 2 mps 757 mmHg 35%
    17:00 +26°C° 0 mm 2 mps 757 mmHg 39%
    18:00 +25°C° 0 mm 2 mps 757 mmHg 42%
    19:00 +24°C° 0 mm 2 mps 757 mmHg 47%
    20:00 +23°C° 0 mm 2 mps 758 mmHg 51%
    21:00 +21°C° 0 mm 2 mps 758 mmHg 56%
    22:00 +20°C° 0 mm 2 mps 758 mmHg 61%
    23:00 +19°C° 0 mm 2 mps 758 mmHg 67%
    Show more